This demonstration page uses our WeatherBlox Daily Observations layout. Learn more.

Left ArrowRight Arrow

Hourly Observations for May 27, 2020

Temp ( °F °C ) Dew Point ( °F °C ) Humidity (%) Winds ( mph kmh ) Pressure ( in mb ) Visibility ( mi km ) Precip ( " mm )
12:15 am 00:15 Clear 56 13.6 51 10.7 83 83 Calm 29.91 1013 10 16.0934 0 0
12:35 am 00:35 Clear 56 13.5 52 11 85 85 Calm 29.92 1013 10 16.0934 0 0
12:55 am 00:55 Clear 56 13.3 52 11.1 87 87 Calm 29.92 1013 10 16.0934 0 0
1:15 am 01:15 Clear 56 13.5 52 11.1 86 86 Calm 29.93 1014 10 16.0934 0 0
1:35 am 01:35 Clear 55 13 52 11.1 88 88 Calm 29.93 1013 10 16.0934 0 0
1:55 am 01:55 Clear 55 12.7 51 10.7 88 88 Calm 29.93 1014 10 16.0934 0 0
2:15 am 02:15 Clear 55 12.7 51 10.7 88 88 Calm 29.93 1014 10 16.0934 0 0
2:35 am 02:35 Clear 54 12.2 51 10.3 88 88 Calm 29.93 1014 10 16.0934 0 0
2:55 am 02:55 Clear 53 11.5 50 9.9 90 90 Calm 29.95 1014 10 16.0934 0 0
3:15 am 03:15 Clear 52 11.2 51 10.3 94 94 Calm 29.95 1014 10 16.0934 0 0
3:35 am 03:35 Clear 52 11.2 50 9.9 92 92 WNW 5 7 29.95 1014 10 16.0934 0 0
3:55 am 03:55 Clear 52 11.2 49 9.7 91 91 NW 6 9 29.95 1014 10 16.0934 0 0
4:15 am 04:15 Clear 52 11 49 9.5 91 91 Calm 29.95 1014 10 16.0934 0 0
4:35 am 04:35 Clear 53 11.8 50 10.2 90 90 WNW 5 7 29.95 1014 10 16.0934 0 0
4:55 am 04:55 Clear 52 11.2 49 9.6 90 90 W 3 6 29.96 1015 10 16.0934 0 0
5:15 am 05:15 Clear 52 10.9 49 9.5 91 91 WNW 3 6 29.96 1015 10 16.0934 0 0
5:35 am 05:35 Clear 52 10.9 48 9.1 89 89 WNW 3 6 29.96 1015 10 16.0934 0 0
5:55 am 05:55 Clear 51 10.7 48 9.1 90 90 NW 5 7 29.97 1015 10 16.0934 0 0
6:15 am 06:15 Sunny 53 11.5 49 9.2 86 86 NW 6 9 29.96 1015 10 16.0934 0 0
6:35 am 06:35 Sunny 52 11.2 48 9.1 87 87 NW 6 9 29.96 1015 10 16.0934 0 0
6:55 am 06:55 Sunny 52 11.3 49 9.2 87 87 Calm 29.96 1015 10 16.0934 0 0
7:15 am 07:15 Sunny 53 11.8 49 9.6 87 87 NNW 3 6 29.97 1015 10 16.0934 0 0
7:35 am 07:35 Sunny 55 12.6 50 10.2 85 85 NW 6 9 29.96 1015 10 16.0934 0 0
7:55 am 07:55 Sunny 57 13.7 51 10.5 81 81 NW 5 7 29.95 1014 10 16.0934 0 0
8:15 am 08:15 Sunny 57 13.9 52 10.9 82 82 NW 5 7 29.96 1015 10 16.0934 0 0
8:35 am 08:35 Sunny 58 14.3 52 11.1 81 81 NW 6 9 29.95 1014 10 16.0934 0 0
8:55 am 08:55 Sunny 59 15 53 11.7 81 81 Calm 29.94 1014 10 16.0934 0 0
9:15 am 09:15 Sunny 60 15.6 53 11.8 78 78 N 6 9 29.94 1014 10 16.0934 0 0
9:35 am 09:35 Sunny 61 16.3 53 11.9 75 75 N 6 9 29.94 1014 10 16.0934 0 0
9:55 am 09:55 Sunny 64 17.5 51 10.8 65 65 NNE 6 9 29.93 1013 10 16.0934 0 0
10:15 am 10:15 Sunny 63 17.2 52 10.9 67 67 N 6 9 29.93 1014 10 16.0934 0 0
10:35 am 10:35 Sunny 64 17.8 52 11.2 65 65 NNE 6 9 29.93 1013 10 16.0934 0 0
10:55 am 10:55 Sunny 66 19 51 10.5 58 58 N 8 13 29.92 1013 10 16.0934 0 0
11:15 am 11:15 Sunny 68 19.8 51 10.7 56 56 NNE 8 13 29.91 1013 10 16.0934 0 0
11:35 am 11:35 Sunny 69 20.7 51 10.7 53 53 N 10 17 29.9 1013 10 16.0934 0 0
11:55 am 11:55 Sunny 71 21.7 51 10.6 49 49 N 12 19 29.89 1012 10 16.0934 0 0
12:15 pm 12:15 Sunny 72 22.2 50 10.2 47 47 N 9 15 29.89 1012 10 16.0934 0 0
12:35 pm 12:35 Sunny 72 22.2 49 9.6 45 45 N 13 20 29.9 1012 10 16.0934 0 0
12:55 pm 12:55 Sunny 72 22.3 50 10.1 46 46 NNE 13 20 29.89 1012 10 16.0934 0 0
1:15 pm 13:15 Sunny 73 23 50 9.9 44 44 N 8 13 29.88 1012 10 16.0934 0 0
1:35 pm 13:35 Sunny 73 22.5 52 11.1 49 49 NNE 10 17 29.88 1012 10 16.0934 0 0
1:55 pm 13:55 Sunny 73 22.7 50 9.8 44 44 NNE 9 15 29.88 1012 10 16.0934 0 0
2:15 pm 14:15 Sunny 74 23.5 50 10.2 43 43 N 13 20 29.86 1011 10 16.0934 0 0
2:35 pm 14:35 Sunny 74 23.5 49 9.6 41 41 NNE 12 19 29.86 1011 10 16.0934 0 0
2:55 pm 14:55 Sunny 75 23.8 49 9.2 40 40 N 12 19 29.86 1011 10 16.0934 0 0
3:15 pm 15:15 Sunny 75 24.1 50 9.8 40 40 NE 10 17 29.85 1011 10 16.0934 0 0
3:35 pm 15:35 Sunny 75 24.1 49 9.7 40 40 NNE 9 15 29.84 1011 10 16.0934 0 0
3:55 pm 15:55 Sunny 76 24.3 49 9.3 39 39 NE 13 20 29.84 1011 10 16.0934 0 0
4:15 pm 16:15 Sunny 76 24.5 47 8.6 36 36 N 12 19 29.84 1011 10 16.0934 0 0
4:35 pm 16:35 Sunny 76 24.6 48 8.9 37 37 NNE 14 22 29.84 1010 10 16.0934 0 0
4:55 pm 16:55 Sunny 76 24.5 50 9.9 40 40 NE 15 24 29.83 1010 10 16.0934 0 0
5:15 pm 17:15 Sunny 75 23.8 51 10.6 43 43 NNE 10 17 29.84 1010 10 16.0934 0 0
5:35 pm 17:35 Sunny 75 24.1 52 10.9 44 44 NNE 12 19 29.83 1010 10 16.0934 0 0
5:55 pm 17:55 Sunny 74 23.2 54 12.1 50 50 ENE 10 17 29.85 1011 10 16.0934 0 0
6:15 pm 18:15 Sunny 73 22.9 53 11.8 50 50 ENE 12 19 29.85 1011 10 16.0934 0 0
6:35 pm 18:35 Sunny 73 22.6 53 11.7 50 50 ENE 10 17 29.86 1011 10 16.0934 0 0
6:55 pm 18:55 Sunny 73 22.5 53 11.7 51 51 ENE 9 15 29.85 1011 10 16.0934 0 0
7:15 pm 19:15 Sunny 72 22.3 53 11.5 51 51 E 9 15 29.85 1011 10 16.0934 0 0
7:35 pm 19:35 Sunny 73 22.9 52 11.3 48 48 ENE 9 15 29.85 1011 10 16.0934 0 0
7:55 pm 19:55 Sunny 72 22.2 52 11 49 49 ENE 9 15 29.86 1011 10 16.0934 0 0
8:15 pm 20:15 Sunny 71 21.5 52 11.2 52 52 E 7 11 29.87 1011 10 16.0934 0 0
8:35 pm 20:35 Sunny 70 21 53 11.6 55 55 E 7 11 29.87 1011 10 16.0934 0 0
8:55 pm 20:55 Sunny 69 20.3 53 11.6 58 58 E 6 9 29.88 1012 10 16.0934 0 0
9:15 pm 21:15 Clear 66 19.1 54 12 64 64 E 3 6 29.89 1012 10 16.0934 0 0
9:35 pm 21:35 Clear 65 18.3 54 12.2 68 68 Calm 29.9 1013 10 16.0934 0 0
9:55 pm 21:55 Clear 65 18.2 54 12 67 67 Calm 29.91 1013 10 16.0934 0 0
10:15 pm 22:15 Clear 63 17 54 12 73 73 NNE 3 6 29.92 1013 10 16.0934 0 0
10:35 pm 22:35 Clear 62 16.7 54 12 74 74 N 3 6 29.93 1014 10 16.0934 0 0
10:55 pm 22:55 Clear 62 16.5 54 12 75 75 NNE 3 6 29.94 1014 10 16.0934 0 0
11:15 pm 23:15 Clear 60 15.8 54 12.1 79 79 NE 5 7 29.95 1014 10 16.0934 0 0
11:35 pm 23:35 Clear 60 15.3 53 11.5 78 78 NE 6 9 29.96 1014 10 16.0934 0 0
11:55 pm 23:55 Clear 61 16.3 53 11.4 73 73 N 6 9 29.95 1014 10 16.0934 0 0

Powered by AerisWeather